カタログに戻る

OPS 4682 DEB

運用中PO
NORAD 51501·DEBRIS·🇺🇸 United States

打ち上げ Apr 3, 1965 から Vandenberg Space Force Base

Loading…

次のパス (今後24時間)

TLE

最新Source: Space-Track

元期: Sep 14, 2026, 09:13 UTC

1 51501U 65027GM  26257.38419200 -.00000024  00000-0 -91713-4 0  9994
2 51501  90.3532  47.0937 0022837  94.3420 266.0318 13.09333700540420

AllMySatでOPS 4682 DEBをリアルタイム追跡

Download on the App Store